When you browse on this site, cookies collect data to enhance your experience and personalize the content and advertising you see.
Visit our Privacy Policy to learn more. By continuing to use the site, you agree to this use of cookies and data.
  • In Spain
  • List of Countries
  • For 7 days
  • Water Temperature
  • Satellite Maps
  • Weather Map
  • Weather Widgets
  • user-avatar
    Login

    Hourly Weather Lubango

    Today, 24 July, Wednesday

    Time Temperature Precipitation Wind Pressure Humidity
    00:00 +14°C° 0 mm 1 mps 608 mmHg 34%
    01:00 +14°C° 0 mm 1 mps 608 mmHg 31%
    02:00 +13°C° 0 mm 1 mps 608 mmHg 30%
    03:00 +13°C° 0 mm 1 mps 607 mmHg 29%
    04:00 +13°C° 0 mm 1 mps 607 mmHg 28%
    05:00 +13°C° 0 mm 1 mps 607 mmHg 27%
    06:00 +13°C° 0 mm 2 mps 607 mmHg 27%
    07:00 +13°C° 0 mm 2 mps 608 mmHg 27%
    08:00 +16°C° 0 mm 2 mps 609 mmHg 22%
    09:00 +20°C° 0 mm 3 mps 610 mmHg 18%
    10:00 +25°C° 0 mm 4 mps 612 mmHg 14%
    11:00 +26°C° 0 mm 3 mps 612 mmHg 13%
    12:00 +27°C° 0 mm 3 mps 611 mmHg 12%
    13:00 +28°C° 0 mm 3 mps 611 mmHg 11%
    14:00 +28°C° 0 mm 3 mps 611 mmHg 11%
    15:00 +28°C° 0 mm 2 mps 611 mmHg 12%
    16:00 +28°C° 0 mm 2 mps 610 mmHg 12%
    17:00 +24°C° 0 mm 2 mps 609 mmHg 19%
    18:00 +19°C° 0 mm 2 mps 608 mmHg 26%
    19:00 +15°C° 0 mm 1 mps 607 mmHg 33%
    20:00 +15°C° 0 mm 1 mps 608 mmHg 33%
    21:00 +15°C° 0 mm 1 mps 608 mmHg 32%
    22:00 +14°C° 0 mm 1 mps 609 mmHg 32%
    23:00 +14°C° 0 mm 1 mps 608 mmHg 30%

    Tomorrow, 25 July, Thursday

    Time Temperature Precipitation Wind Pressure Humidity
    00:00 +14°C° 0 mm 1 mps 608 mmHg 29%
    01:00 +14°C° 0 mm 1 mps 608 mmHg 28%
    02:00 +14°C° 0 mm 1 mps 608 mmHg 27%
    03:00 +14°C° 0 mm 2 mps 608 mmHg 26%
    04:00 +13°C° 0 mm 2 mps 608 mmHg 25%
    05:00 +13°C° 0 mm 2 mps 608 mmHg 25%
    06:00 +13°C° 0 mm 2 mps 608 mmHg 24%
    07:00 +13°C° 0 mm 2 mps 608 mmHg 24%
    08:00 +17°C° 0 mm 2 mps 610 mmHg 21%
    09:00 +20°C° 0 mm 3 mps 611 mmHg 17%
    10:00 +25°C° 0 mm 4 mps 613 mmHg 13%
    11:00 +26°C° 0 mm 3 mps 613 mmHg 12%
    12:00 +27°C° 0 mm 3 mps 613 mmHg 11%
    13:00 +28°C° 0 mm 3 mps 612 mmHg 10%
    14:00 +28°C° 0 mm 3 mps 612 mmHg 11%
    15:00 +28°C° 0 mm 3 mps 611 mmHg 11%
    16:00 +28°C° 0 mm 2 mps 611 mmHg 11%
    17:00 +24°C° 0 mm 2 mps 610 mmHg 18%
    18:00 +19°C° 0 mm 2 mps 609 mmHg 26%
    19:00 +15°C° 0 mm 1 mps 608 mmHg 33%
    20:00 +15°C° 0 mm 1 mps 608 mmHg 33%
    21:00 +15°C° 0 mm 1 mps 609 mmHg 32%
    22:00 +14°C° 0 mm 2 mps 609 mmHg 32%
    23:00 +14°C° 0 mm 2 mps 609 mmHg 31%

    Day after tomorrow, 26 July, Friday

    Time Temperature Precipitation Wind Pressure Humidity
    00:00 +14°C° 0 mm 2 mps 609 mmHg 30%
    01:00 +14°C° 0 mm 2 mps 608 mmHg 29%
    02:00 +13°C° 0 mm 2 mps 608 mmHg 28%
    03:00 +13°C° 0 mm 2 mps 608 mmHg 27%
    04:00 +13°C° 0 mm 2 mps 608 mmHg 27%
    05:00 +13°C° 0 mm 2 mps 608 mmHg 24%
    06:00 +12°C° 0 mm 3 mps 608 mmHg 22%
    07:00 +13°C° 0 mm 3 mps 609 mmHg 20%
    08:00 +17°C° 0 mm 3 mps 610 mmHg 17%
    09:00 +21°C° 0 mm 4 mps 612 mmHg 13%
    10:00 +25°C° 0 mm 4 mps 613 mmHg 10%
    11:00 +26°C° 0 mm 4 mps 613 mmHg 9%
    12:00 +28°C° 0 mm 3 mps 612 mmHg 8%
    13:00 +29°C° 0 mm 3 mps 612 mmHg 7%
    14:00 +28°C° 0 mm 3 mps 612 mmHg 8%
    15:00 +28°C° 0 mm 2 mps 611 mmHg 8%
    16:00 +28°C° 0 mm 2 mps 611 mmHg 8%
    17:00 +24°C° 0 mm 2 mps 610 mmHg 13%
    18:00 +20°C° 0 mm 1 mps 609 mmHg 18%
    19:00 +15°C° 0 mm 1 mps 608 mmHg 24%
    20:00 +15°C° 0 mm 1 mps 608 mmHg 25%
    21:00 +15°C° 0 mm 1 mps 609 mmHg 26%
    22:00 +14°C° 0 mm 2 mps 609 mmHg 27%
    23:00 +14°C° 0 mm 2 mps 609 mmHg 27%

    27 July, Saturday

    Time Temperature Precipitation Wind Pressure Humidity
    00:00 +14°C° 0 mm 2 mps 608 mmHg 27%
    01:00 +14°C° 0 mm 2 mps 608 mmHg 26%
    02:00 +13°C° 0 mm 2 mps 608 mmHg 26%
    03:00 +13°C° 0 mm 2 mps 608 mmHg 25%
    04:00 +13°C° 0 mm 2 mps 608 mmHg 24%
    05:00 +13°C° 0 mm 2 mps 608 mmHg 23%
    06:00 +13°C° 0 mm 2 mps 608 mmHg 22%
    07:00 +13°C° 0 mm 2 mps 609 mmHg 21%
    08:00 +17°C° 0 mm 3 mps 610 mmHg 17%
    09:00 +20°C° 0 mm 3 mps 611 mmHg 14%
    10:00 +25°C° 0 mm 4 mps 613 mmHg 11%
    11:00 +26°C° 0 mm 4 mps 612 mmHg 10%
    12:00 +27°C° 0 mm 3 mps 612 mmHg 9%
    13:00 +29°C° 0 mm 3 mps 612 mmHg 8%
    14:00 +28°C° 0 mm 3 mps 611 mmHg 8%
    15:00 +28°C° 0 mm 3 mps 611 mmHg 9%
    16:00 +28°C° 0 mm 3 mps 611 mmHg 9%
    17:00 +24°C° 0 mm 2 mps 609 mmHg 18%
    18:00 +19°C° 0 mm 1 mps 608 mmHg 27%
    19:00 +14°C° 0 mm 1 mps 607 mmHg 35%
    20:00 +14°C° 0 mm 1 mps 608 mmHg 33%
    21:00 +14°C° 0 mm 1 mps 608 mmHg 31%
    22:00 +14°C° 0 mm 1 mps 608 mmHg 28%
    23:00 +14°C° 0 mm 1 mps 608 mmHg 27%

    28 July, Sunday

    Time Temperature Precipitation Wind Pressure Humidity
    00:00 +14°C° 0 mm 1 mps 608 mmHg 26%
    01:00 +14°C° 0 mm 1 mps 608 mmHg 25%
    02:00 +13°C° 0 mm 1 mps 608 mmHg 25%
    03:00 +13°C° 0 mm 1 mps 607 mmHg 25%
    04:00 +13°C° 0 mm 1 mps 607 mmHg 25%
    05:00 +12°C° 0 mm 1 mps 607 mmHg 25%
    06:00 +12°C° 0 mm 1 mps 608 mmHg 25%
    07:00 +12°C° 0 mm 1 mps 608 mmHg 24%
    08:00 +16°C° 0 mm 1 mps 610 mmHg 20%
    09:00 +20°C° 0 mm 2 mps 611 mmHg 16%
    10:00 +24°C° 0 mm 2 mps 613 mmHg 12%
    11:00 +26°C° 0 mm 2 mps 612 mmHg 12%
    12:00 +27°C° 0 mm 3 mps 612 mmHg 11%
    13:00 +28°C° 0 mm 3 mps 612 mmHg 11%
    14:00 +27°C° 0 mm 3 mps 611 mmHg 12%
    15:00 +27°C° 0 mm 3 mps 611 mmHg 14%
    16:00 +26°C° 0 mm 3 mps 610 mmHg 16%
    17:00 +21°C° 0 mm 3 mps 609 mmHg 28%
    18:00 +18°C° 0 mm 2 mps 608 mmHg 40%
    19:00 +14°C° 0 mm 1 mps 607 mmHg 53%
    20:00 +14°C° 0 mm 1 mps 608 mmHg 50%
    21:00 +13°C° 0 mm 1 mps 608 mmHg 47%
    22:00 +13°C° 0 mm 1 mps 608 mmHg 44%
    23:00 +13°C° 0 mm 1 mps 608 mmHg 43%

    29 July, Monday

    Time Temperature Precipitation Wind Pressure Humidity
    00:00 +12°C° 0 mm 1 mps 608 mmHg 43%
    01:00 +12°C° 0 mm 1 mps 608 mmHg 42%
    02:00 +12°C° 0 mm 1 mps 608 mmHg 41%
    03:00 +12°C° 0 mm 1 mps 607 mmHg 39%
    04:00 +11°C° 0 mm 1 mps 607 mmHg 37%
    05:00 +12°C° 0 mm 1 mps 608 mmHg 37%
    06:00 +12°C° 0 mm 1 mps 608 mmHg 36%
    07:00 +12°C° 0 mm 1 mps 609 mmHg 36%
    08:00 +16°C° 0 mm 1 mps 610 mmHg 30%
    09:00 +21°C° 0 mm 1 mps 612 mmHg 24%
    10:00 +24°C° 0 mm 1 mps 613 mmHg 19%
    11:00 +25°C° 0 mm 2 mps 613 mmHg 18%
    12:00 +26°C° 0 mm 2 mps 613 mmHg 17%
    13:00 +27°C° 0 mm 2 mps 612 mmHg 16%
    14:00 +26°C° 0 mm 2 mps 612 mmHg 17%
    15:00 +26°C° 0 mm 3 mps 611 mmHg 19%
    16:00 +25°C° 0 mm 3 mps 610 mmHg 20%
    17:00 +21°C° 0 mm 3 mps 609 mmHg 27%
    18:00 +17°C° 0 mm 2 mps 608 mmHg 33%
    19:00 +14°C° 0 mm 2 mps 607 mmHg 40%
    20:00 +14°C° 0 mm 1 mps 608 mmHg 37%
    21:00 +14°C° 0 mm 1 mps 608 mmHg 34%
    22:00 +13°C° 0 mm 1 mps 608 mmHg 31%
    23:00 +14°C° 0 mm 1 mps 608 mmHg 29%
    Show more